Weather History for KCWI - November, 2011

Change the Weather History Date:

Wednesday, November 16, 2011

  Actual Average Record
Temperature  
Mean Temperature - -  
Max Temperature - 48 °F 71 °F (1952)
Min Temperature - 30 °F 5 °F (1959)
Moisture  
Dew Point -    
Average Humidity    
Maximum Humidity    
Minimum Humidity    
Precipitation  
Precipitation 0.00 in - - ()
Sea Level Pressure  
Sea Level Pressure 30.13 in    
Wind  
Wind Speed 10 mph (WNW)    
Max Wind Speed 18 mph    
Max Gust Speed 25 mph    
Visibility 10 miles    
Events      
Averages and records for this station are not official NWS values.
T = Trace of Precipitation, MM = Missing Value Source: NWS Daily Summary

Daily Weather History Graph

Daily Weather History Graph

Search for Another Location

Airport or City:

Trip Planner

Search our weather history database for the weather conditions in past years. The results will help you decide how hot, cold, wet, or windy it might be!

Date:

Astronomy

Nov. 16, 2011 Rise Set
Actual Time 6:51 AM CST 4:39 PM CST
Civil Twilight 6:21 AM CST 5:09 PM CST
Nautical Twilight 5:47 AM CST 5:43 PM CST
Astronomical Twilight 5:15 AM CST 6:16 PM CST
Moon 9:54 PM CST (11/16) 11:27 AM CST (11/16)
Length of Visible Light 10h 48m
Length of Day
9h 48m
Waning Gibbous, 70% of the Moon is Illuminated
Nov 16
Waning Gibbous
Nov 18
Last Quarter
Nov 25
New
Dec 2
First Quarter
Dec 10
Full

Hourly Weather History & Observations

Time (CST) Temp. Dew Point Humidity Pressure Visibility Wind Dir Wind Speed Gust Speed Precip Events Conditions
12:35 AM - - N/A% 29.99 in 10.0 mi NW 9.2 mph - N/A   Clear
12:55 AM - - N/A% 29.98 in 10.0 mi WNW 6.9 mph - N/A   Clear
1:15 AM - - N/A% 29.99 in 10.0 mi NW 8.1 mph - N/A   Clear
1:35 AM - - N/A% 29.99 in 10.0 mi NW 3.5 mph - N/A   Clear
1:55 AM - - N/A% 30.00 in 10.0 mi WNW 4.6 mph - N/A   Clear
2:15 AM - - N/A% 30.00 in 10.0 mi WNW 6.9 mph - N/A   Clear
2:35 AM - - N/A% 30.01 in 10.0 mi WNW 10.4 mph - N/A   Clear
2:55 AM - - N/A% 30.01 in 10.0 mi WNW 9.2 mph - N/A   Clear
3:15 AM - - N/A% 30.00 in 10.0 mi WNW 8.1 mph - N/A   Clear
3:35 AM - - N/A% 30.00 in 10.0 mi WNW 10.4 mph - N/A   Clear
3:55 AM - - N/A% 30.02 in 10.0 mi WNW 10.4 mph - N/A   Clear
4:15 AM - - N/A% 30.03 in 10.0 mi WNW 10.4 mph - N/A   Clear
4:35 AM - - N/A% 30.04 in 10.0 mi WNW 9.2 mph - N/A   Clear
4:55 AM - - N/A% 30.04 in 10.0 mi WNW 9.2 mph - N/A   Clear
5:15 AM - - N/A% 30.05 in 10.0 mi West 8.1 mph - N/A   Clear
5:35 AM - - N/A% 30.06 in 10.0 mi WNW 8.1 mph - N/A   Clear
6:15 AM - - N/A% 30.09 in 10.0 mi WNW 6.9 mph - N/A   Clear
6:35 AM - - N/A% 30.10 in 10.0 mi WNW 8.1 mph - N/A   Clear
7:15 AM - - N/A% 30.12 in 10.0 mi WNW 9.2 mph - N/A   Clear
7:35 AM - - N/A% 30.12 in 10.0 mi WNW 8.1 mph - N/A   Clear
7:55 AM - - N/A% 30.13 in 10.0 mi WNW 8.1 mph - N/A   Clear
8:15 AM - - N/A% 30.14 in 10.0 mi WNW 9.2 mph - N/A   Clear
8:35 AM - - N/A% 30.14 in 10.0 mi WNW 10.4 mph - N/A   Clear
8:55 AM - - N/A% 30.14 in 10.0 mi NW 12.7 mph - N/A   Clear
9:15 AM - - N/A% 30.15 in 10.0 mi NW 12.7 mph - N/A   Clear
9:35 AM - - N/A% 30.15 in 10.0 mi NW 13.8 mph 20.7 mph N/A   Clear
9:55 AM - - N/A% 30.15 in 10.0 mi NNW 17.3 mph 21.9 mph N/A   Clear
10:15 AM - - N/A% 30.16 in 10.0 mi NW 17.3 mph 24.2 mph N/A   Clear
10:35 AM - - N/A% 30.16 in 10.0 mi NNW 17.3 mph - N/A   Clear
10:55 AM - - N/A% 30.16 in 10.0 mi NW 16.1 mph 23.0 mph N/A   Clear
11:15 AM - - N/A% 30.16 in 10.0 mi NW 13.8 mph 21.9 mph N/A   Clear
11:35 AM - - N/A% 30.16 in 10.0 mi NW 15.0 mph 20.7 mph N/A   Clear
11:55 AM - - N/A% 30.16 in 10.0 mi NNW 18.4 mph 24.2 mph N/A   Clear
12:15 PM - - N/A% 30.15 in 10.0 mi NW 18.4 mph 25.3 mph N/A   Clear
12:35 PM - - N/A% 30.15 in 10.0 mi NW 16.1 mph 19.6 mph N/A   Clear
12:55 PM - - N/A% 30.15 in 10.0 mi NW 18.4 mph 23.0 mph N/A   Clear
1:15 PM - - N/A% 30.16 in 10.0 mi NW 18.4 mph 24.2 mph N/A   Clear
1:35 PM - - N/A% 30.16 in 10.0 mi NW 16.1 mph 24.2 mph N/A   Clear
1:55 PM - - N/A% 30.15 in 10.0 mi NW 17.3 mph 23.0 mph N/A   Clear
2:15 PM - - N/A% 30.15 in 10.0 mi NW 16.1 mph 24.2 mph N/A   Clear
2:35 PM - - N/A% 30.15 in 10.0 mi WNW 15.0 mph 23.0 mph N/A   Clear
2:55 PM - - N/A% 30.16 in 10.0 mi NW 13.8 mph 20.7 mph N/A   Clear
3:15 PM - - N/A% 30.16 in 10.0 mi NW 16.1 mph - N/A   Clear
3:35 PM - - N/A% 30.17 in 10.0 mi WNW 12.7 mph 20.7 mph N/A   Clear
3:55 PM - - N/A% 30.17 in 10.0 mi WNW 11.5 mph 19.6 mph N/A   Clear
4:15 PM - - N/A% 30.18 in 10.0 mi NW 10.4 mph - N/A   Clear
4:35 PM - - N/A% 30.18 in 10.0 mi WNW 9.2 mph - N/A   Clear
5:15 PM - - N/A% 30.19 in 10.0 mi WNW 8.1 mph - N/A   Clear
5:35 PM - - N/A% 30.19 in 10.0 mi West 4.6 mph - N/A   Clear
5:55 PM - - N/A% 30.20 in 10.0 mi West 5.8 mph - N/A   Clear
6:35 PM - - N/A% 30.20 in 10.0 mi WSW 3.5 mph - N/A   Clear
6:55 PM - - N/A% 30.20 in 10.0 mi WSW 5.8 mph - N/A   Clear
7:15 PM - - N/A% 30.19 in 10.0 mi WSW 5.8 mph - N/A   Clear
7:35 PM - - N/A% 30.19 in 10.0 mi WSW 6.9 mph - N/A   Clear
7:55 PM - - N/A% 30.19 in 10.0 mi WSW 6.9 mph - N/A   Clear
8:15 PM - - N/A% 30.19 in 10.0 mi WSW 6.9 mph - N/A   Clear
8:55 PM - - N/A% 30.18 in 10.0 mi WSW 8.1 mph - N/A   Clear
9:15 PM - - N/A% 30.19 in 10.0 mi West 8.1 mph - N/A   Clear
9:35 PM - - N/A% 30.19 in 10.0 mi West 8.1 mph - N/A   Clear
9:55 PM - - N/A% 30.19 in 10.0 mi West 8.1 mph - N/A   Clear
10:15 PM - - N/A% 30.19 in 10.0 mi West 8.1 mph - N/A   Clear
10:35 PM - - N/A% 30.19 in 10.0 mi West 8.1 mph - N/A   Clear
10:55 PM - - N/A% 30.19 in 10.0 mi West 9.2 mph - N/A   Clear
11:15 PM - - N/A% 30.19 in 10.0 mi WNW 9.2 mph - N/A   Clear
11:35 PM - - N/A% 30.19 in 10.0 mi West 8.1 mph - N/A   Clear
11:55 PM - - N/A% 30.20 in 10.0 mi WNW 9.2 mph - N/A   Clear